Location: Boussac
(44.2782°N, 2.3665°E)
Time: 10:47:18
(UTC+00:00)

ADEOS - Pass Details

Date: 15 May 2026
Orbit: 789 x 792 km, 98.8° (Epoch: 8 June)

Event Time Altitude Azimuth Distance (km) Brightness Sun altitude
Exits shadow 20:25:06 - 170° (S) 2,491 5.7 -11.7°
Reaches altitude 10° 20:25:28 10° 171° (S) 2,351 5.6 -11.8°
Maximum altitude 20:30:39 75° 257° (WSW) 822 3.7 -12.5°
Drops below altitude 10° 20:35:53 10° 343° (NNW) 2,367 7.0 -13.1°
Sets 20:38:14 0° 345° (NNW) 3,300 7.9 -13.4°
